This is the latest recevied weather packets stored in our database for station/object W5GBS-9. If no packets are shown the sender has not sent any weather packets the latest 10 day(s).
| Time | Temp. | Humidity | Pressure | Rain* | Wind** | Luminosity | Snow |
|---|---|---|---|---|---|---|---|
| 1787857377 | 34.44° C | 100% | 1014.8 hPa | 0 mm | - | - | - |
| 1787856656 | 33.89° C | 100% | 1014.8 hPa | 0 mm | - | - | - |
| 1787855936 | 32.78° C | 100% | 1015 hPa | 0 mm | - | - | - |
| 1787855215 | 32.22° C | 100% | 1015.2 hPa | 0 mm | - | - | - |
| 1787852332 | 31.11° C | 100% | 1015.8 hPa | 0 mm | - | - | - |
| 1787850891 | 30.56° C | 100% | 1015.8 hPa | 0 mm | - | - | - |
| 1787850170 | 30° C | 100% | 1015.8 hPa | 0 mm | - | - | - |
| 1787848729 | 30° C | 100% | 1016 hPa | 0 mm | - | - | - |
| 1787848008 | 30° C | 100% | 1015.7 hPa | 0 mm | - | - | - |
| 1787847287 | 29.44° C | 100% | 1015.6 hPa | 0 mm | - | - | - |
| 1787846565 | 29.44° C | 100% | 1015.5 hPa | 0 mm | - | - | - |
| 1787845846 | 29.44° C | 100% | 1015.2 hPa | 0 mm | - | - | - |
| 1787845125 | 29.44° C | 100% | 1015.2 hPa | 0 mm | - | - | - |
| 1787844403 | 29.44° C | 100% | 1015.3 hPa | 0 mm | - | - | - |
| 1787843683 | 29.44° C | 100% | 1015.3 hPa | 0 mm | - | - | - |
| 1787842963 | 28.89° C | 100% | 1015.1 hPa | 0 mm | - | - | - |
| 1787842241 | 28.89° C | 100% | 1015.1 hPa | 0 mm | - | - | - |
| 1787841521 | 28.89° C | 100% | 1015.1 hPa | 0 mm | - | - | - |
| 1787841124 | 28.89° C | 100% | 1015.1 hPa | 0 mm | - | - | - |
| 1787840800 | 28.89° C | 100% | 1015.1 hPa | 0 mm | - | - | - |
| 1787840081 | 28.33° C | 100% | 1015.1 hPa | 0 mm | - | - | - |
| 1787839360 | 28.33° C | 100% | 1015.2 hPa | 0 mm | - | - | - |
| 1787838638 | 28.33° C | 100% | 1015 hPa | 0 mm | - | - | - |
| 1787837196 | 26.67° C | 100% | 1015 hPa | 0 mm | - | - | - |
| 1787836476 | 26.11° C | 100% | 1014.9 hPa | 0 mm | - | - | - |
* Rain latest hour (hover to see other rain measurements)
** Current wind speed in m/s (hover to see current wind gust speed)